timestamp,surface_pressure_avg,surface_temp_avg,battery_voltage,lat,long
2019-10-04 00:00:00+00:00,251.3548,9.5,12.89,47.84626,-54.09684
2019-10-04 00:10:00+00:00,254.1681,9.5,12.81,47.84626,-54.09684
2019-10-04 00:20:00+00:00,259.0231,9.5,12.97,47.84626,-54.09684
2019-10-04 00:30:00+00:00,262.8031,9.5,12.97,47.84626,-54.09684
2019-10-04 00:40:00+00:00,269.9314,9.5,12.97,47.84626,-54.09684
2019-10-04 00:50:00+00:00,278.1081,9.5,12.97,47.84626,-54.09684
2019-10-04 01:00:00+00:00,283.203,9.5,12.89,47.84626,-54.09684
2019-10-04 01:10:00+00:00,288.238,9.5,12.81,47.84626,-54.09684
2019-10-04 01:20:00+00:00,296.5013,9.5,12.89,47.84626,-54.09684
2019-10-04 01:30:00+00:00,302.1848,9.49,12.89,47.84626,-54.09684
2019-10-04 01:40:00+00:00,304.458,9.4,12.97,47.84626,-54.09684
2019-10-04 01:50:00+00:00,307.8647,9.4,12.97,47.84626,-54.09684
2019-10-04 02:00:00+00:00,316.358,9.4,12.89,47.84626,-54.09684
2019-10-04 02:10:00+00:00,321.543,9.31,12.81,47.84626,-54.09684
2019-10-04 02:20:00+00:00,324.5096,9.29,12.89,47.84626,-54.09684
2019-10-04 02:30:00+00:00,327.3414,9.2,12.89,47.84626,-54.09684
2019-10-04 02:40:00+00:00,332.4797,9.15,12.89,47.84626,-54.09684
2019-10-04 02:50:00+00:00,336.9563,9.1,12.97,47.84626,-54.09684
2019-10-04 03:00:00+00:00,336.8113,9.1,12.81,47.84626,-54.09684
2019-10-04 03:10:00+00:00,338.4896,9.1,12.81,47.84626,-54.09684
2019-10-04 03:20:00+00:00,339.358,9.18,12.89,47.84626,-54.09684
2019-10-04 03:30:00+00:00,339.6362,9.2,12.89,47.84626,-54.09684
2019-10-04 03:40:00+00:00,337.3863,9.28,12.89,47.84626,-54.09684
2019-10-04 03:50:00+00:00,336.778,9.39,12.89,47.84626,-54.09684
2019-10-04 04:00:00+00:00,340.6896,9.49,12.81,47.84626,-54.09684
2019-10-04 04:10:00+00:00,342.9446,9.5,12.73,47.84626,-54.09684
2019-10-04 04:20:00+00:00,343.7012,9.5,12.89,47.84626,-54.09684
2019-10-04 04:30:00+00:00,342.5963,9.5,12.89,47.84626,-54.09684
2019-10-04 04:40:00+00:00,341.593,9.5,12.89,47.84626,-54.09684
2019-10-04 04:50:00+00:00,338.4197,9.5,12.89,47.84626,-54.09684
2019-10-04 05:00:00+00:00,336.1562,9.5,12.81,47.84626,-54.09684
2019-10-04 05:10:00+00:00,336.2863,9.5,12.73,47.84626,-54.09684
2019-10-04 05:20:00+00:00,332.9163,9.5,12.81,47.84626,-54.09684
2019-10-04 05:30:00+00:00,325.2063,9.5,12.89,47.84626,-54.09684
2019-10-04 05:40:00+00:00,315.418,9.5,12.89,47.84626,-54.09684
2019-10-04 05:50:00+00:00,308.7163,9.5,12.89,47.84626,-54.09684
2019-10-04 06:00:00+00:00,303.3314,9.5,12.81,47.84626,-54.09684
2019-10-04 06:10:00+00:00,296.543,9.52,12.73,47.84626,-54.09684
2019-10-04 06:20:00+00:00,288.2864,9.57,12.81,47.84626,-54.09684
2019-10-04 06:30:00+00:00,275.853,9.56,12.81,47.84626,-54.09684
2019-10-04 06:40:00+00:00,265.3581,9.53,12.89,47.84626,-54.09684
2019-10-04 06:50:00+00:00,258.8731,9.54,12.89,47.84626,-54.09684
2019-10-04 07:00:00+00:00,253.3248,9.51,12.81,47.84626,-54.09684
2019-10-04 07:10:00+00:00,243.3198,9.5,12.73,47.84626,-54.09684
2019-10-04 07:20:00+00:00,236.0814,9.5,12.81,47.84626,-54.09684
2019-10-04 07:30:00+00:00,231.3581,9.5,12.81,47.84626,-54.09684
2019-10-04 07:40:00+00:00,225.3964,9.5,12.89,47.84626,-54.09684
2019-10-04 07:50:00+00:00,218.5281,9.5,12.89,47.84626,-54.09684
2019-10-04 08:00:00+00:00,216.2864,9.5,12.81,47.84626,-54.09684
2019-10-04 08:10:00+00:00,214.8131,9.5,12.73,47.84626,-54.09684
2019-10-04 08:20:00+00:00,210.7897,9.5,12.81,47.84626,-54.09684
2019-10-04 08:30:00+00:00,208.4731,9.5,12.81,47.84626,-54.09684
2019-10-04 08:40:00+00:00,209.8481,9.45,12.81,47.84626,-54.09684
2019-10-04 08:50:00+00:00,209.0981,9.4,12.89,47.84626,-54.09684
2019-10-04 09:00:00+00:00,208.0298,9.4,12.81,47.84626,-54.09684
2019-10-04 09:10:00+00:00,210.2581,9.4,12.73,47.84626,-54.09684
2019-10-04 09:20:00+00:00,214.9965,9.4,12.81,47.84626,-54.09684
2019-10-04 09:30:00+00:00,219.3598,9.4,12.81,47.84626,-54.09684
2019-10-04 09:40:00+00:00,219.2264,9.4,12.81,47.84626,-54.09684
2019-10-04 09:50:00+00:00,221.2131,9.44,12.89,47.84626,-54.09684
2019-10-04 10:00:00+00:00,225.7731,9.47,12.81,47.84626,-54.09684
2019-10-04 10:10:00+00:00,227.6414,9.42,13.05,47.84626,-54.09684
2019-10-04 10:20:00+00:00,229.7714,9.4,13.53,47.84626,-54.09684
2019-10-04 10:30:00+00:00,237.0131,9.4,13.68,47.84626,-54.09684
2019-10-04 10:40:00+00:00,243.6681,9.4,14.24,47.84626,-54.09684
2019-10-04 10:50:00+00:00,243.9915,9.4,14.4,47.84626,-54.09684
2019-10-04 11:00:00+00:00,242.7748,9.4,14.48,47.84626,-54.09684
2019-10-04 11:10:00+00:00,250.9297,9.39,14.24,47.84626,-54.09684
2019-10-04 11:20:00+00:00,259.5714,9.38,16.31,47.84626,-54.09684
2019-10-04 11:30:00+00:00,259.2248,9.32,16.63,47.84626,-54.09684
2019-10-04 11:40:00+00:00,257.1614,9.3,14.96,47.84626,-54.09684
2019-10-04 11:50:00+00:00,264.6464,9.3,16.47,47.84626,-54.09684
2019-10-04 12:00:00+00:00,267.7864,9.3,15.2,47.84626,-54.09684
2019-10-04 12:10:00+00:00,264.1265,9.3,14.8,47.84626,-54.09684
2019-10-04 12:20:00+00:00,264.403,9.3,15.75,47.84626,-54.09684
2019-10-04 12:30:00+00:00,275.6581,9.3,15.27,47.84626,-54.09684
2019-10-04 12:40:00+00:00,281.4564,9.29,15.35,47.84626,-54.09684
2019-10-04 12:50:00+00:00,281.738,9.3,15.27,47.84626,-54.09684
2019-10-04 13:00:00+00:00,287.8698,9.3,15.04,47.84626,-54.09684
2019-10-04 13:10:00+00:00,298.6863,9.3,15.04,47.84626,-54.09684
2019-10-04 13:20:00+00:00,302.0229,9.3,15.04,47.84626,-54.09684
2019-10-04 13:30:00+00:00,302.003,9.3,14.96,47.84626,-54.09684
2019-10-04 13:40:00+00:00,311.0164,9.3,14.88,47.84626,-54.09684
2019-10-04 13:50:00+00:00,323.3397,9.3,15.11,47.84626,-54.09684
2019-10-04 14:00:00+00:00,327.8246,9.3,14.88,47.84626,-54.09684
2019-10-04 14:10:00+00:00,327.1429,9.35,14.8,47.84626,-54.09684
2019-10-04 14:20:00+00:00,332.918,9.38,15.04,47.84626,-54.09684
2019-10-04 14:30:00+00:00,338.4897,9.37,14.96,47.84626,-54.09684
2019-10-04 14:40:00+00:00,341.1979,9.39,14.72,47.84626,-54.09684
2019-10-04 14:50:00+00:00,342.9913,9.4,14.72,47.84626,-54.09684
2019-10-04 15:00:00+00:00,345.868,9.4,14.4,47.84626,-54.09684
2019-10-04 15:10:00+00:00,349.2413,9.42,14.32,47.84626,-54.09684
2019-10-04 15:20:00+00:00,354.6829,9.46,14.48,47.84626,-54.09684
2019-10-04 15:30:00+00:00,354.898,9.48,14.48,47.84626,-54.09684
2019-10-04 15:40:00+00:00,353.5029,9.5,14.4,47.84626,-54.09684
2019-10-04 15:50:00+00:00,352.8914,9.5,14.4,47.84626,-54.09684
2019-10-04 16:00:00+00:00,355.6546,9.5,14.32,47.84626,-54.09684
2019-10-04 16:10:00+00:00,354.0045,9.5,14.24,47.84626,-54.09684
2019-10-04 16:20:00+00:00,351.398,9.5,14.32,47.84626,-54.09684
2019-10-04 16:30:00+00:00,352.1629,9.5,14.32,47.84626,-54.09684
2019-10-04 16:40:00+00:00,354.7146,9.5,14.4,47.84626,-54.09684
2019-10-04 16:50:00+00:00,352.0463,9.5,14.32,47.84626,-54.09684
2019-10-04 17:00:00+00:00,346.4679,9.5,14.24,47.84626,-54.09684
2019-10-04 17:10:00+00:00,349.7529,9.51,14.16,47.84626,-54.09684
2019-10-04 17:20:00+00:00,350.9929,9.52,14.24,47.84626,-54.09684
2019-10-04 17:30:00+00:00,346.4647,9.52,14.24,47.84626,-54.09684
2019-10-04 17:40:00+00:00,338.4697,9.53,14.24,47.84626,-54.09684
2019-10-04 17:50:00+00:00,334.6563,9.55,14.32,47.84626,-54.09684
2019-10-04 18:00:00+00:00,326.6363,9.56,14.24,47.84626,-54.09684
2019-10-04 18:10:00+00:00,315.2197,9.57,14.16,47.84626,-54.09684
2019-10-04 18:20:00+00:00,309.0647,9.59,14.24,47.84626,-54.09684
2019-10-04 18:30:00+00:00,304.6664,9.59,14.24,47.84626,-54.09684
2019-10-04 18:40:00+00:00,293.7497,9.58,14.24,47.84626,-54.09684
2019-10-04 18:50:00+00:00,288.9314,9.58,14.24,47.84626,-54.09684
2019-10-04 19:00:00+00:00,281.0897,9.58,14.16,47.84626,-54.09684
2019-10-04 19:10:00+00:00,272.0363,9.57,14.0,47.84626,-54.09684
2019-10-04 19:20:00+00:00,266.5564,9.58,14.0,47.84626,-54.09684
2019-10-04 19:30:00+00:00,264.8214,9.59,14.0,47.84626,-54.09684
2019-10-04 19:40:00+00:00,252.438,9.57,14.08,47.84626,-54.09684
2019-10-04 19:50:00+00:00,235.3814,9.56,14.08,47.84626,-54.09684
2019-10-04 20:00:00+00:00,229.3548,9.55,14.0,47.84626,-54.09684
2019-10-04 20:10:00+00:00,226.1031,9.56,13.84,47.84626,-54.09684
2019-10-04 20:20:00+00:00,219.4331,9.56,13.84,47.84626,-54.09684
2019-10-04 20:30:00+00:00,214.3664,9.54,13.84,47.84626,-54.09684
2019-10-04 20:40:00+00:00,214.5381,9.54,13.84,47.84626,-54.09684
2019-10-04 20:50:00+00:00,215.0831,9.54,13.76,47.84626,-54.09684
2019-10-04 21:00:00+00:00,211.3015,9.5,13.68,47.84626,-54.09684
2019-10-04 21:10:00+00:00,209.7614,9.51,13.44,47.84626,-54.09684
2019-10-04 21:20:00+00:00,213.7432,9.52,13.44,47.84626,-54.09684
2019-10-04 21:30:00+00:00,217.8315,9.5,13.44,47.84626,-54.09684
2019-10-04 21:40:00+00:00,217.7598,9.5,13.37,47.84626,-54.09684
2019-10-04 21:50:00+00:00,217.1381,9.5,13.37,47.84626,-54.09684
2019-10-04 22:00:00+00:00,221.1098,9.5,13.29,47.84626,-54.09684
2019-10-04 22:10:00+00:00,227.4014,9.5,13.13,47.84626,-54.09684
2019-10-04 22:20:00+00:00,228.0098,9.5,13.13,47.84626,-54.09684
2019-10-04 22:30:00+00:00,223.0598,9.5,13.05,47.84626,-54.09684
2019-10-04 22:40:00+00:00,223.0948,9.5,13.05,47.84626,-54.09684
2019-10-04 22:50:00+00:00,230.3498,9.5,13.05,47.84626,-54.09684
2019-10-04 23:00:00+00:00,234.5447,9.5,12.97,47.84626,-54.09684
2019-10-04 23:10:00+00:00,232.4614,9.5,12.89,47.84626,-54.09684
2019-10-04 23:20:00+00:00,235.4047,9.5,12.97,47.84626,-54.09684
2019-10-04 23:30:00+00:00,243.7597,9.5,12.97,47.84626,-54.09684
2019-10-04 23:40:00+00:00,245.8781,9.5,12.97,47.84626,-54.09684
2019-10-04 23:50:00+00:00,244.9865,9.5,12.97,47.84626,-54.09684
